Location: Gro� Glienicke
(52.4675°N, 13.1079°E)
Time: 19:17:12
(UTC+00:00)

Cosmos 1328 Rocket - Pass Details

Date: 06 July 2020
Orbit: 601 x 627 km, 82.5° (Epoch: 11 August)

Event Time Altitude Azimuth Distance (km) Brightness Sun altitude
Rises 22:57:22 0° 344° (NNW) 2,870 8.7 -14.9°
Reaches altitude 10° 22:59:39 10° 339° (NNW) 1,960 7.3 -14.9°
Maximum altitude 23:03:47 47° 266° (W) 808 4.1 -14.9°
Enters shadow 23:06:07 23° 204° (SSW) 1,289 4.7 -15.0°
